Location: Bruderhein
(53.8035°N, 112.9265°W)
Time: 19:53:41
(UTC+00:00)

Max Valier Satellite - Pass Details

Date: 07 April 2023
Orbit: 445 x 458 km, 97.2° (Epoch: 31 May)

Event Time Altitude Azimuth Distance (km) Brightness Sun altitude
Rises 03:44:25 0° 202° (SSW) 2,448 ? -12.8°
Reaches altitude 10° 03:46:51 10° 221° (SW) 1,586 ? -13.1°
Maximum altitude 03:49:21 19° 268° (W) 1,150 ? -13.4°
Drops below altitude 10° 03:51:53 10° 316° (NW) 1,608 ? -13.7°
Sets 03:54:24 0° 335° (NNW) 2,495 ? -14.1°
